Wind_Speed
10 10 10 10 10 10 10 10 9 8 8 8 6 5 3 4 6 4 4 5 7 6 5 4 5 4 3 6 6 2 7 3 6 15 17 14 14 13 11 8 5 5 5 5 7
10 10 11 11 11 11 10 9 7 7 6 6 9 9 8 8 7 9 8 6 6 8 7 6 7 6 5 5 7 6 9 9 8 14 22 21 17 14 10 8 6 6 7 6 8
11 11 11 11 11 11 11 10 9 8 8 8 9 9 9 9 10 10 10 10 8 9 9 8 8 6 7 6 6 9 8 6 9 8 21 12 18 14 11 9 7 6 7 9 10
11 11 10 11 11 11 12 11 11 10 10 9 11 13 14 14 13 13 13 13 12 11 11 10 8 7 8 7 7 10 12 9 7 7 7 16 17 16 13 11 8 6 4 8 11
12 12 12 12 11 11 12 11 11 12 13 14 15 15 15 13 15 14 13 13 14 13 13 12 10 8 7 9 7 10 11 10 6 4 7 13 18 18 15 13 11 8 7 6 11
12 12 13 13 12 13 14 14 14 16 16 15 15 15 15 15 14 14 12 12 12 13 14 14 11 10 12 11 9 17 10 9 7 3 4 8 16 22 17 14 12 10 8 5 7
13 14 14 13 14 15 15 16 17 19 18 16 15 15 15 15 14 13 13 13 13 13 13 12 12 12 11 10 13 10 11 11 9 9 8 8 13 19 19 15 14 11 9 8 8
13 14 14 15 15 15 17 18 19 20 18 15 13 12 12 12 13 14 13 13 12 12 11 12 11 13 13 15 17 10 10 8 11 11 10 14 13 14 18 19 16 15 12 10 8
14 15 15 16 16 16 18 20 20 19 18 14 12 11 11 11 11 12 12 12 10 10 8 9 10 12 14 14 7 5 7 18 20 13 12 14 14 24 23 22 19 16 14 12 10
16 17 17 17 17 17 19 20 20 19 16 13 10 10 9 9 10 11 10 9 9 7 6 6 9 12 14 9 14 21 14 24 19 20 21 13 10 20 28 30 23 20 15 12 10
16 18 18 17 17 17 19 20 19 15 13 11 9 7 7 7 8 8 8 9 9 8 8 7 8 9 10 18 22 18 13 19 17 22 18 20 3 10 22 24 27 19 19 13 10
18 18 19 18 18 18 19 20 18 16 13 9 7 6 5 4 5 6 7 9 10 10 10 10 10 11 15 18 24 8 10 30 25 25 22 20 22 9 22 22 29 22 23 12 10
18 19 20 19 18 18 19 19 17 14 10 6 4 3 2 0 1 3 6 8 10 11 12 9 8 19 13 14 19 19 13 17 25 21 20 23 23 15 10 17 22 21 22 16 13
19 20 20 20 18 17 17 17 16 15 8 7 4 4 4 2 2 1 4 6 9 12 13 13 21 11 15 15 17 8 22 26 27 10 18 15 15 26 18 15 15 26 22 28 22
19 20 19 20 18 16 16 15 14 12 5 10 7 5 3 4 3 0 3 5 8 10 10 15 15 15 15 16 17 18 25 22 17 12 15 19 13 30 25 21 16 26 33 27 19
19 19 20 20 18 15 14 14 13 9 8 7 5 4 3 5 5 3 2 5 7 8 11 17 11 11 13 18 20 23 22 19 15 12 11 19 20 28 26 19 20 26 24 27 27
20 20 21 20 18 15 13 12 10 5 8 6 5 5 4 6 5 4 2 3 4 1 10 11 11 12 13 13 16 17 10 8 9 12 12 20 18 12 25 25 15 20 29 30 27
22 23 22 18 16 13 11 12 9 10 10 7 4 2 2 4 4 4 4 1 4 12 4 4 17 15 12 12 11 15 13 12 18 7 17 13 13 19 23 28 12 21 19 31 30
27 25 21 16 15 13 12 11 7 10 11 9 6 2 6 3 3 4 3 9 5 11 12 3 9 20 10 13 12 13 17 16 20 7 14 11 8 15 19 21 10 16 17 18 32
30 26 20 18 16 15 13 11 14 13 11 11 6 9 6 8 3 3 11 8 6 5 13 9 8 13 13 10 13 19 26 16 15 17 14 11 12 21 17 10 20 16 20 21 25
28 27 22 20 20 17 14 13 13 12 13 13 14 11 11 12 8 9 8 12 7 6 7 11 13 10 10 9 9 19 18 11 16 27 15 11 16 19 18 16 21 23 27 30 33
29 30 24 23 21 20 17 16 14 15 14 15 15 15 15 14 12 11 10 15 8 9 7 11 12 11 13 12 20 21 21 16 21 19 24 25 13 2 17 21 15 21 28 27 31
28 27 21 23 22 21 20 19 18 17 17 17 16 15 16 17 18 19 17 15 12 12 9 9 7 6 10 15 17 18 15 19 24 34 18 21 17 11 19 18 23 11 28 32 31
29 27 22 22 22 24 23 21 21 20 19 19 18 15 14 17 19 21 19 21 15 17 12 10 10 11 14 21 27 24 22 24 20 23 11 12 19 23 20 14 15 15 16 26 38
30 29 29 25 25 24 28 26 23 22 20 21 20 18 14 15 17 19 22 24 19 19 17 16 15 16 18 26 23 24 28 25 20 27 20 20 13 16 26 11 12 19 3 7 32
31 30 30 29 26 25 28 29 26 23 24 22 21 19 16 16 16 18 19 22 23 22 21 19 19 20 18 19 27 28 28 26 29 20 30 30 19 14 22 20 16 10 12 3 11
31 28 27 27 27 27 28 29 28 27 23 23 20 19 17 16 19 22 19 20 23 21 23 22 21 21 19 16 18 23 23 23 27 32 31 16 28 25 25 22 20 16 15 9 7
Wind_Direction
333 338 344 348 345 340 335 330 322 311 291 280 303 323 317 323 327 324 260 260 260 257 247 247 252 244 244 216 218 332 3 81 2 205 192 181 202 189 197 198 196 183 157 195 177
23 25 25 17 13 8 360 348 333 318 306 292 276 281 288 292 283 296 296 276 259 259 249 240 246 251 246 239 237 237 330 14 360 198 177 186 195 194 190 198 194 197 160 182 179
26 19 14 8 4 1 354 344 334 320 307 286 276 276 283 282 278 276 289 286 264 255 252 246 248 258 261 251 235 248 268 313 338 287 202 178 181 190 184 190 180 209 169 178 179
18 11 2 354 351 355 351 344 337 329 318 302 281 278 274 268 289 286 286 281 273 265 257 251 243 246 262 252 243 244 255 275 310 1 200 187 180 187 184 181 176 178 180 176 177
19 11 3 358 358 358 350 348 337 327 316 301 290 283 278 273 279 285 287 279 270 264 259 257 246 234 239 258 255 262 257 265 268 339 53 211 181 185 184 180 183 170 182 186 174
20 14 6 359 351 345 345 341 334 327 318 305 293 281 277 285 281 283 280 272 265 259 256 252 241 232 242 248 248 260 254 247 270 284 258 249 197 174 187 183 192 175 180 169 167
16 12 3 354 346 341 341 340 335 330 320 306 292 285 282 279 278 278 274 268 260 253 250 248 234 228 230 257 256 245 241 246 251 272 274 279 275 195 178 182 192 177 179 175 163
10 7 356 350 346 342 342 340 337 333 327 316 303 291 281 276 271 271 265 257 253 251 243 242 232 221 220 202 246 248 262 247 252 253 279 295 280 203 180 179 190 184 178 173 162
4 1 353 347 343 341 340 339 337 332 325 318 311 294 285 277 273 264 256 246 241 240 237 228 220 215 216 224 237 293 256 217 254 240 257 275 265 187 179 187 186 186 176 173 169
356 355 351 346 339 338 338 337 338 333 328 324 314 303 292 280 267 255 242 233 225 216 208 208 204 208 213 201 222 224 204 260 245 246 243 262 246 209 197 182 181 185 176 177 169
349 349 345 341 336 335 335 338 337 331 331 322 316 304 290 276 258 248 222 207 213 209 209 214 209 207 200 209 217 205 215 237 231 244 256 251 222 225 185 194 176 201 173 170 175
341 342 341 338 336 335 336 337 337 334 333 334 322 303 296 275 248 223 216 220 222 224 221 225 227 206 197 221 208 232 250 239 253 247 257 262 258 201 214 221 179 180 197 176 180
336 339 338 336 336 334 335 336 335 332 330 341 341 325 341 305 224 210 214 219 224 223 220 207 238 231 214 216 212 218 235 271 269 253 267 279 265 267 228 208 211 175 191 194 166
332 333 334 332 329 331 332 333 332 331 329 356 337 348 360 16 74 182 214 214 219 220 221 215 248 242 228 217 216 201 241 248 262 262 266 289 286 266 235 244 255 196 190 184 199
325 328 329 328 323 323 325 329 328 335 70 327 341 2 22 47 43 26 225 203 218 226 216 242 254 243 233 221 225 213 240 256 257 255 259 276 294 280 276 270 253 194 184 192 204
317 320 323 324 318 315 319 323 323 323 272 316 326 349 27 45 35 11 260 213 211 227 230 250 253 247 233 230 233 215 241 248 254 267 281 263 277 279 276 261 254 206 195 197 194
310 312 317 317 308 309 310 313 311 353 307 305 325 346 45 12 14 15 359 215 183 73 302 259 264 257 248 237 236 238 230 280 259 265 258 256 279 298 277 249 271 218 202 200 198
303 306 309 306 299 297 299 305 293 276 280 280 285 325 110 346 347 357 17 310 211 165 214 288 295 284 248 227 251 231 192 224 240 213 229 239 282 264 269 259 276 237 236 204 197
300 299 300 293 290 287 289 292 280 272 271 266 272 281 290 269 304 330 163 198 253 211 175 217 233 267 259 238 228 233 223 198 258 271 242 284 222 275 281 268 271 255 239 226 200
295 289 287 281 278 277 275 275 269 267 254 248 234 243 208 267 314 65 281 271 280 212 205 234 213 277 273 254 237 222 203 205 236 250 230 221 272 255 252 281 253 241 227 220 208
288 283 280 277 267 271 266 267 274 268 259 243 235 234 203 241 211 248 244 275 265 266 202 217 203 243 263 273 228 243 235 179 239 237 223 217 187 236 246 233 254 246 237 225 224
285 283 276 270 263 260 258 254 267 271 260 253 244 235 234 241 236 231 223 257 271 261 232 234 199 231 267 227 250 253 205 193 230 252 252 253 229 295 257 247 247 242 242 233 221
276 285 274 265 265 254 253 251 255 264 266 256 247 244 247 245 244 242 244 253 260 265 260 249 210 262 263 279 294 275 242 261 228 220 215 260 233 190 266 265 252 248 238 230 213
266 273 271 271 255 246 252 249 248 253 258 259 251 255 253 245 243 246 250 255 244 255 263 259 238 228 220 243 237 244 240 205 252 246 285 277 281 297 269 262 262 277 207 214 213
263 267 268 264 256 248 245 247 244 248 249 253 257 259 249 238 240 243 245 256 254 254 254 256 258 250 237 239 244 241 253 220 211 226 246 260 231 234 255 234 242 259 291 198 201
267 266 261 255 255 251 244 246 246 240 249 250 251 249 248 240 237 232 242 247 249 265 255 256 263 266 263 252 252 244 237 243 257 226 223 213 289 261 238 216 216 233 255 312 218
263 258 253 251 249 246 245 246 243 238 233 243 246 242 250 250 247 250 257 253 259 259 261 259 262 274 274 261 254 256 252 245 249 233 236 260 229 240 231 216 219 221 241 262 248
Height
5893 5892 5891 5890 5889 5888 5886 5886 5885 5885 5885 5885 5885 5885 5885 5885 5884 5884 5885 5885 5885 5886 5887 5887 5887 5888 5889 5890 5890 5890 5890 5888 5888 5887 5889 5891 5893 5893 5892 5892 5892 5892 5892 5893 5892
5893 5892 5890 5889 5888 5886 5885 5884 5884 5883 5883 5883 5883 5883 5884 5884 5884 5883 5884 5884 5884 5884 5885 5886 5886 5887 5888 5889 5890 5891 5889 5885 5887 5886 5887 5889 5892 5893 5893 5892 5892 5893 5893 5893 5893
5893 5892 5890 5889 5887 5886 5885 5884 5883 5882 5882 5881 5881 5881 5881 5881 5882 5882 5882 5882 5882 5882 5883 5885 5886 5887 5888 5889 5889 5890 5889 5888 5888 5885 5883 5888 5891 5893 5893 5893 5893 5894 5893 5893 5894
5893 5891 5890 5888 5887 5886 5884 5883 5882 5881 5880 5879 5879 5878 5878 5879 5881 5880 5880 5879 5880 5881 5882 5883 5885 5886 5887 5888 5889 5889 5889 5889 5889 5885 5885 5888 5891 5893 5893 5894 5894 5894 5894 5894 5895
5893 5891 5889 5888 5886 5885 5883 5881 5880 5879 5877 5876 5876 5875 5875 5876 5876 5876 5876 5876 5877 5878 5880 5881 5883 5885 5886 5886 5888 5887 5888 5888 5889 5888 5887 5887 5889 5892 5893 5893 5894 5894 5895 5895 5896
5893 5891 5889 5887 5886 5884 5882 5880 5878 5876 5874 5873 5872 5871 5872 5873 5872 5873 5873 5873 5874 5875 5877 5879 5882 5883 5884 5885 5886 5888 5888 5889 5889 5889 5888 5887 5886 5889 5892 5893 5894 5894 5895 5897 5897
5892 5890 5888 5886 5884 5883 5880 5878 5876 5874 5871 5869 5868 5868 5868 5869 5869 5869 5869 5870 5871 5872 5874 5876 5879 5881 5882 5884 5885 5886 5887 5888 5888 5888 5887 5886 5887 5886 5890 5892 5894 5895 5896 5897 5898
5892 5890 5888 5885 5883 5881 5878 5876 5873 5870 5867 5865 5864 5864 5864 5864 5864 5865 5865 5866 5867 5868 5871 5873 5876 5878 5880 5882 5884 5885 5886 5888 5887 5886 5886 5885 5884 5887 5888 5891 5894 5895 5896 5898 5897
5890 5888 5886 5884 5881 5879 5876 5874 5871 5867 5865 5863 5862 5861 5860 5860 5861 5861 5862 5863 5864 5866 5868 5870 5872 5875 5877 5880 5886 5888 5889 5883 5885 5884 5884 5882 5881 5883 5887 5890 5892 5895 5896 5898 5897
5889 5886 5884 5882 5879 5877 5874 5871 5868 5865 5862 5860 5859 5859 5857 5858 5857 5857 5859 5861 5863 5865 5867 5869 5870 5872 5875 5882 5888 5885 5889 5883 5883 5880 5880 5879 5879 5881 5883 5887 5889 5893 5896 5898 5898
5887 5885 5882 5880 5877 5874 5872 5869 5868 5865 5861 5859 5857 5855 5854 5854 5854 5855 5857 5859 5861 5864 5865 5867 5869 5871 5877 5882 5881 5884 5880 5878 5876 5879 5880 5880 5877 5876 5880 5884 5888 5893 5891 5898 5899
5885 5883 5880 5878 5875 5872 5869 5866 5864 5862 5859 5857 5855 5853 5853 5852 5853 5854 5856 5858 5860 5862 5864 5866 5867 5870 5874 5875 5878 5881 5880 5877 5878 5878 5878 5879 5876 5878 5880 5882 5884 5889 5895 5895 5898
5882 5880 5878 5875 5873 5870 5867 5865 5862 5860 5858 5856 5854 5853 5852 5852 5852 5853 5855 5856 5858 5860 5862 5865 5868 5864 5869 5871 5875 5878 5882 5877 5872 5875 5878 5877 5878 5877 5878 5881 5884 5887 5891 5892 5896
5880 5878 5876 5873 5871 5868 5866 5863 5860 5858 5856 5856 5854 5852 5852 5851 5852 5852 5853 5855 5857 5858 5860 5863 5861 5864 5866 5869 5872 5879 5875 5875 5873 5878 5876 5876 5881 5876 5877 5879 5881 5882 5886 5893 5898
5876 5874 5873 5870 5868 5866 5864 5861 5859 5857 5860 5856 5854 5852 5851 5851 5851 5851 5852 5853 5855 5857 5860 5861 5859 5862 5864 5866 5869 5874 5871 5872 5872 5875 5877 5878 5881 5872 5875 5876 5877 5880 5885 5892 5896
5873 5871 5869 5867 5865 5863 5861 5859 5858 5858 5857 5855 5853 5852 5851 5850 5850 5850 5851 5852 5853 5855 5857 5856 5858 5860 5861 5862 5864 5866 5867 5869 5870 5874 5878 5880 5878 5872 5873 5874 5875 5878 5881 5886 5892
5869 5868 5865 5863 5862 5860 5858 5857 5857 5858 5856 5855 5852 5851 5851 5850 5849 5850 5850 5851 5853 5855 5856 5855 5855 5856 5858 5860 5861 5864 5869 5873 5874 5878 5881 5875 5877 5874 5870 5874 5875 5877 5880 5885 5889
5864 5863 5861 5860 5858 5857 5855 5855 5854 5854 5852 5852 5852 5851 5852 5850 5850 5849 5849 5850 5851 5853 5859 5860 5856 5854 5856 5859 5862 5861 5869 5873 5870 5872 5872 5871 5875 5873 5869 5871 5874 5874 5877 5883 5887
5859 5858 5857 5855 5854 5853 5853 5852 5854 5850 5850 5850 5849 5850 5850 5850 5850 5849 5850 5854 5849 5849 5853 5860 5859 5852 5854 5856 5859 5862 5863 5871 5868 5865 5868 5869 5869 5870 5868 5871 5871 5873 5876 5880 5886
5852 5851 5851 5850 5849 5849 5849 5849 5847 5847 5847 5847 5848 5849 5855 5852 5849 5849 5849 5847 5847 5847 5849 5853 5854 5852 5851 5853 5856 5857 5854 5864 5870 5868 5868 5863 5869 5864 5868 5867 5869 5871 5872 5877 5880
5845 5844 5844 5844 5844 5844 5845 5844 5844 5843 5843 5844 5844 5845 5847 5848 5847 5851 5851 5845 5844 5843 5844 5846 5850 5850 5851 5851 5854 5856 5856 5858 5864 5860 5861 5861 5860 5861 5863 5865 5865 5867 5866 5870 5874
5838 5835 5838 5837 5838 5838 5839 5840 5840 5839 5839 5840 5841 5840 5841 5843 5843 5844 5845 5842 5842 5841 5840 5842 5844 5851 5850 5852 5848 5850 5853 5855 5865 5858 5860 5855 5857 5856 5858 5859 5861 5861 5862 5865 5869
5830 5828 5829 5829 5831 5832 5833 5834 5835 5835 5835 5836 5836 5837 5837 5838 5838 5838 5837 5838 5838 5838 5838 5838 5841 5847 5849 5850 5848 5847 5851 5854 5853 5853 5852 5854 5845 5848 5854 5854 5854 5857 5855 5859 5866
5823 5822 5822 5823 5824 5825 5826 5827 5829 5829 5830 5830 5831 5832 5832 5833 5833 5833 5833 5832 5835 5834 5835 5835 5837 5839 5844 5841 5841 5842 5843 5844 5849 5846 5851 5851 5849 5846 5850 5850 5851 5852 5849 5850 5853
5814 5814 5814 5816 5817 5818 5819 5820 5822 5823 5825 5825 5826 5826 5827 5829 5829 5828 5829 5828 5829 5829 5831 5831 5831 5832 5834 5833 5835 5836 5836 5840 5841 5850 5849 5849 5849 5850 5844 5847 5847 5850 5846 5845 5848
5803 5805 5805 5807 5809 5810 5811 5813 5815 5817 5818 5819 5821 5821 5822 5823 5824 5823 5823 5823 5824 5824 5825 5826 5826 5825 5827 5828 5828 5830 5834 5837 5837 5838 5842 5844 5844 5832 5842 5841 5843 5846 5846 5844 5847
5792 5794 5796 5797 5799 5801 5803 5805 5808 5810 5812 5813 5815 5816 5817 5817 5816 5816 5817 5818 5818 5819 5819 5820 5820 5819 5820 5821 5822 5822 5825 5829 5831 5832 5835 5832 5835 5837 5836 5839 5839 5841 5843 5843 5845